This demonstration page uses our WeatherBlox Daily Observations layout. Learn more.

Left ArrowRight Arrow

38.20091, -84.87328

Hourly Observations for April 20, 2022

Temp ( °F °C ) Dew Point ( °F °C ) Humidity (%) Winds ( mph kmh ) Pressure ( in mb ) Visibility ( mi km ) Precip ( " mm )
1:53 am 01:53 Partly Cloudy 40 4.4 34 1.1 79 79 Calm 30.29 1026 10 16 0.00 0.00
2:53 am 02:53 Clear 41 5 35 1.7 79 79 Calm 30.29 1026 10 16 0.00 0.00
3:53 am 03:53 Clear 40 4.4 34 1.1 79 79 Calm 30.28 1025 10 16 0.00 0.00
4:53 am 04:53 Mostly Cloudy 42 5.6 34 1.1 73 73 ESE 5 7 30.27 1025 10 16 0.00 0.00
5:53 am 05:53 Cloudy 44 6.7 33 0.6 65 65 ESE 6 9 30.27 1025 10 16 0.00 0.00
6:53 am 06:53 Partly Cloudy 43 6.1 33 0.6 68 68 E 6 9 30.29 1026 10 16 0.00 0.00
7:53 am 07:53 Sunny 45 7.2 34 1.1 66 66 ESE 5 7 30.30 1026 10 16 0.00 0.00
8:53 am 08:53 Mostly Cloudy 47 8.3 33 0.6 59 59 SE 5 7 30.31 1026 10 16 0.00 0.00
9:53 am 09:53 Mostly Cloudy 51 10.6 34 1.1 52 52 SE 7 11 30.28 1025 10 16 0.00 0.00
10:53 am 10:53 Sunny 57 13.9 32 0 39 39 ESE 12 19 30.29 1026 10 16 0.00 0.00
11:53 am 11:53 Sunny 60 15.6 33 0.6 36 36 E 14 22 30.28 1025 10 16 0.00 0.00
12:53 pm 12:53 Sunny 62 16.7 35 1.7 37 37 VRB 7 11 30.26 1025 10 16 0.00 0.00
1:53 pm 13:53 Sunny 65 18.3 33 0.6 31 31 SE 13 20 30.23 1024 10 16 0.00 0.00
2:53 pm 14:53 Sunny 67 19.4 34 1.1 30 30 SE 14 22 30.19 1022 10 16 0.00 0.00
3:53 pm 15:53 Sunny 69 20.6 32 0 25 25 S 14 22 30.17 1022 10 16 0.00 0.00
4:53 pm 16:53 Sunny 70 21.1 30 -1.1 23 23 SE 13 20 30.14 1021 10 16 0.00 0.00
5:53 pm 17:53 Sunny 70 21.1 29 -1.7 22 22 SE 13 20 30.12 1020 10 16 0.00 0.00
6:53 pm 18:53 Sunny 69 20.6 32 0 25 25 SE 7 11 30.11 1020 10 16 0.00 0.00
7:53 pm 19:53 Sunny 67 19.4 33 0.6 28 28 SE 3 6 30.10 1019 10 16 0.00 0.00
8:53 pm 20:53 Clear 66 18.9 34 1.1 30 30 SE 7 11 30.11 1020 10 16 0.00 0.00
9:53 pm 21:53 Cloudy 66 18.9 33 0.6 29 29 S 8 13 30.11 1020 10 16 0.00 0.00
10:53 pm 22:53 Cloudy 65 18.3 32 0 29 29 SSW 10 17 30.14 1021 10 16 0.00 0.00
11:53 pm 23:53 Cloudy 63 17.2 34 1.1 34 34 SSE 8 13 30.11 1020 10 16 0.00 0.00

Powered by AerisWeather